Torna al catalogo

A-SEANSAT-PG1

AttivoRadioamatoreSSO
NORAD 57197·PAYLOAD·🇲🇾 Malaysia

Lanciato Jun 27, 2023 da Vostochny Cosmodrome

Loading…

Prossimi Passaggi (prossime 24 ore)

TLE

AggiornatoSource: Space-Track

Epoca: Sep 14, 2026, 21:40 UTC

1 57197U 23091AH  26257.90333566  .00019971  00000-0  50470-3 0  9997
2 57197  97.4994 329.5464 0007921 114.7951 245.4119 15.39805962178508

Traccia A-SEANSAT-PG1 in tempo reale con AllMySat

Download on the App Store